Location: Armstrong Village
(14.3346°N, 120.9854°E)
Time: 17:44:01
(UTC+00:00)

Delta 7925 Rocket - Visible Passes

Search period start: 11 April 2026 00:00
Search period end: 21 April 2026 00:00
Orbit: 645 x 1641 km, 26.3° (Epoch: 11 April)

Date Brightness Start Highest point End Pass type
(mag) Time Alt. Az. Time Alt. Az. Time Alt. Az.
11 Apr 6.5 19:08:19 20° SSE 19:10:13 21° SSE 19:17:11 10° ESE visible
11 Apr 5.5 20:57:03 10° SW 21:07:00 53° SSE 21:15:47 10° E visible
12 Apr 6.7 18:33:59 18° SE 18:33:59 18° SE 18:39:17 10° ESE visible
12 Apr 5.6 20:22:06 18° SW 20:29:38 49° SSE 20:38:41 10° E visible
13 Apr 7.0 17:59:36 12° SE 17:59:36 12° SE 18:01:04 10° ESE visible
13 Apr 5.7 19:47:44 30° SSW 19:52:13 44° SSE 20:01:28 10° E visible
14 Apr 5.7 19:13:19 38° SSE 19:14:49 40° SSE 19:24:04 10° E visible
14 Apr 5.1 21:01:26 11° WSW 21:11:32 89° SSE 21:21:00 10° ENE visible
15 Apr 6.0 18:38:51 34° SE 18:38:51 34° SE 18:46:30 10° E visible
15 Apr 5.1 20:26:58 24° WSW 20:34:05 82° SSE 20:43:56 10° ENE visible
16 Apr 6.5 18:04:20 24° ESE 18:04:20 24° ESE 18:08:48 10° E visible
16 Apr 5.1 19:52:27 42° SW 19:56:37 76° SSE 20:06:44 10° ENE visible
17 Apr 7.1 17:29:46 13° E 17:29:46 13° E 17:30:54 10° E visible
17 Apr 5.0 19:17:53 64° SSW 19:19:10 70° SSE 19:29:26 10° ENE visible
17 Apr 5.4 21:05:59 10° W 21:16:11 62° NNW 21:25:48 10° ENE visible
18 Apr 5.3 18:43:16 58° ESE 18:43:16 58° ESE 18:51:59 10° ENE visible
18 Apr 5.3 20:31:22 22° W 20:38:41 66° NNW 20:48:40 10° ENE visible
19 Apr 6.0 18:08:37 36° E 18:08:37 36° E 18:14:26 10° ENE visible
19 Apr 5.1 19:56:43 39° W 20:01:10 71° NNW 20:11:26 10° ENE visible
20 Apr 6.7 17:33:55 20° E 17:33:55 20° E 17:36:46 10° ENE visible
20 Apr 4.9 19:22:01 64° W 19:23:40 76° NNW 19:34:06 10° ENE visible
20 Apr 5.8 21:11:27 10° W 21:21:11 46° N 21:30:38 10° ENE visible
